Search for airport 
image banner adimage banner adimage banner ad
image banner ad

SSBD - Sobradinho Airport

Located in Sobradinho, Brazil

ICAO - SSBD, IATA -

Data provided by Airmate  

General information

Coordinates: S29°23'47" W52°59'30"
Elevation is 1443 feet MSL.
Magnetic variation is -16° East
View others Airports in Rio Grande do Sul

Operational data

Special qualification required
Current time UTC:
Current local time:
Weather at : SBSM - Santa Maria Airport ( 76 km )
METAR: SBSM 242300Z 13005KT CAVOK 20/16 Q1014
TAF: TAF SBSM 241500Z 2418/2506 35005KT CAVOK TX29/2420Z TN17/2506Z RMK PDZ
View NOTAMs / SUP AIP / TFR affecting this airport [VIEW]
Communications frequencies: [VIEW]

Runways:

Airport contact information

Address: Sobradinho Brazil

Satellite view of SSBD